Weather History for KPMV - January, 2013

Change the Weather History Date:

Sunday, January 13, 2013

  Actual Average (KOFF) Record (KOFF)
Temperature  
Mean Temperature 15 °F -  
Max Temperature 22 °F 30 °F 51 °F (2002)
Min Temperature 8 °F 14 °F -11 °F (2011)
Degree Days  
Heating Degree Days 50    
Moisture  
Dew Point 4 °F    
Average Humidity 65    
Maximum Humidity 77    
Minimum Humidity 41    
Precipitation  
Precipitation 0.00 in - - ()
Sea Level Pressure  
Sea Level Pressure 30.21 in    
Wind  
Wind Speed 10 mph (WNW)    
Max Wind Speed 14 mph    
Max Gust Speed 21 mph    
Visibility 10 miles    
Events      
Averages and records for this station are not official NWS values.
T = Trace of Precipitation, MM = Missing Value Source: NWS Daily Summary

Daily Weather History Graph

Daily Weather History Graph

Search for Another Location

Airport or City:

Trip Planner

Search our weather history database for the weather conditions in past years. The results will help you decide how hot, cold, wet, or windy it might be!

Date:

Astronomy

Jan. 13, 2013 Rise Set
Actual Time 7:46 AM CST 5:18 PM CST
Civil Twilight 7:16 AM CST 5:48 PM CST
Nautical Twilight 6:42 AM CST 6:22 PM CST
Astronomical Twilight 6:09 AM CST 6:55 PM CST
Moon 8:44 AM CST (1/13) 7:59 PM CST (1/13)
Length of Visible Light 10h 32m
Length of Day
9h 31m
Waxing Crescent, 5% of the Moon is Illuminated
Jan 13
Waxing Crescent
Jan 18
First Quarter
Jan 26
Full
Feb 3
Last Quarter
Feb 10
New

Hourly Weather History & Observations

Time (CST) Temp. Windchill Dew Point Humidity Pressure Visibility Wind Dir Wind Speed Gust Speed Precip Events Conditions
12:15 AM 12.2 °F -3.1 °F 3.2 °F 67% 30.11 in 10.0 mi NW 13.8 mph 19.6 mph N/A   Clear
12:35 AM 11.8 °F -1.5 °F 3.6 °F 69% 30.11 in 10.0 mi NW 10.4 mph 19.6 mph N/A   Clear
12:55 AM 11.5 °F -3.4 °F 3.7 °F 71% 30.11 in 10.0 mi NW 12.7 mph 20.7 mph N/A   Clear
1:15 AM 11.3 °F -4.3 °F 3.9 °F 72% 30.12 in 10.0 mi NW 13.8 mph 19.6 mph N/A   Scattered Clouds
1:35 AM 11.1 °F -4.5 °F 3.7 °F 72% 30.11 in 10.0 mi NW 13.8 mph 19.6 mph N/A   Scattered Clouds
1:55 AM 10.8 °F -5.0 °F 3.6 °F 73% 30.11 in 10.0 mi NNW 13.8 mph 20.7 mph N/A   Clear
2:15 AM 10.8 °F -5.0 °F 3.2 °F 72% 30.11 in 10.0 mi NW 13.8 mph 20.7 mph N/A   Clear
2:35 AM 10.4 °F -5.4 °F 3.6 °F 74% 30.12 in 10.0 mi NW 13.8 mph - N/A   Clear
2:55 AM 10.2 °F -1.7 °F 3.6 °F 74% 30.13 in 10.0 mi NNW 8.1 mph - N/A   Scattered Clouds
3:15 AM 10.0 °F -2.9 °F 3.6 °F 75% 30.13 in 10.0 mi NW 9.2 mph - N/A   Mostly Cloudy
3:35 AM 9.9 °F -2.2 °F 3.2 °F 74% 30.13 in 10.0 mi NNW 8.1 mph - N/A   Mostly Cloudy
3:55 AM 10.0 °F -2.9 °F 3.2 °F 74% 30.13 in 10.0 mi NNW 9.2 mph 17.3 mph N/A   Mostly Cloudy
4:15 AM 10.4 °F -2.4 °F 3.7 °F 74% 30.13 in 10.0 mi NNW 9.2 mph - N/A   Overcast
4:35 AM 10.8 °F -1.1 °F 3.6 °F 73% 30.14 in 10.0 mi NNW 8.1 mph - N/A   Overcast
4:55 AM 10.9 °F -1.8 °F 3.7 °F 73% 30.14 in 10.0 mi NNW 9.2 mph - N/A   Overcast
5:15 AM 10.9 °F -0.8 °F 4.3 °F 75% 30.14 in 10.0 mi NW 8.1 mph - N/A   Overcast
5:35 AM 11.3 °F -1.3 °F 4.5 °F 74% 30.14 in 10.0 mi NW 9.2 mph - N/A   Overcast
5:55 AM 11.3 °F -2.2 °F 4.6 °F 75% 30.16 in 10.0 mi NW 10.4 mph - N/A   Overcast
6:15 AM 10.0 °F -5.9 °F 2.8 °F 73% 30.16 in 10.0 mi NW 13.8 mph - N/A   Mostly Cloudy
6:35 AM 9.3 °F -6.1 °F 1.9 °F 72% 30.17 in 10.0 mi NNW 12.7 mph - N/A   Scattered Clouds
6:55 AM 8.6 °F -1.3 °F 2.3 °F 76% 30.18 in 10.0 mi NNW 5.8 mph - N/A   Clear
7:15 AM 8.6 °F -5.5 °F 2.1 °F 75% 30.18 in 10.0 mi NW 10.4 mph - N/A   Clear
7:35 AM 8.6 °F -3.7 °F 2.1 °F 75% 30.19 in 10.0 mi NW 8.1 mph - N/A   Clear
7:55 AM 8.2 °F -3.0 °F 2.1 °F 76% 30.20 in 10.0 mi NW 6.9 mph - N/A   Clear
8:15 AM 8.6 °F -2.6 °F 2.7 °F 77% 30.21 in 10.0 mi NW 6.9 mph - N/A   Clear
8:35 AM 9.1 °F -3.0 °F 3.2 °F 77% 30.22 in 10.0 mi WNW 8.1 mph - N/A   Clear
8:55 AM 10.2 °F -2.7 °F 3.6 °F 74% 30.22 in 10.0 mi WNW 9.2 mph - N/A   Clear
9:15 AM 11.1 °F -2.4 °F 3.7 °F 72% 30.23 in 10.0 mi WNW 10.4 mph - N/A   Clear
9:35 AM 11.3 °F -2.9 °F 3.2 °F 70% 30.22 in 10.0 mi NW 11.5 mph - N/A   Clear
9:55 AM 12.4 °F -1.6 °F 3.6 °F 68% 30.23 in 10.0 mi NW 11.5 mph - N/A   Clear
10:15 AM 13.6 °F 0.0 °F 4.1 °F 66% 30.23 in 10.0 mi NW 11.5 mph - N/A   Clear
10:35 AM 14.0 °F 0.5 °F 3.6 °F 63% 30.23 in 10.0 mi NW 11.5 mph - N/A   Clear
10:55 AM 15.3 °F 2.8 °F 4.3 °F 62% 30.22 in 10.0 mi WNW 10.4 mph 16.1 mph N/A   Clear
11:15 AM 15.6 °F 4.0 °F 3.7 °F 59% 30.22 in 10.0 mi WNW 9.2 mph - N/A   Clear
11:35 AM 16.7 °F 3.2 °F 3.7 °F 57% 30.22 in 10.0 mi NW 12.7 mph 16.1 mph N/A   Clear
11:55 AM 17.4 °F 6.2 °F 3.2 °F 54% 30.22 in 10.0 mi WNW 9.2 mph 16.1 mph N/A   Clear
12:15 PM 18.3 °F 5.9 °F 3.7 °F 53% 30.21 in 10.0 mi WNW 11.5 mph 18.4 mph N/A   Clear
12:35 PM 18.9 °F 5.9 °F 4.3 °F 53% 30.21 in 10.0 mi WNW 12.7 mph 16.1 mph N/A   Clear
12:55 PM 19.4 °F 8.6 °F 4.3 °F 52% 30.20 in 10.0 mi WNW 9.2 mph - N/A   Clear
1:15 PM 20.1 °F 6.9 °F 4.1 °F 50% 30.19 in 10.0 mi WNW 13.8 mph 18.4 mph N/A   Clear
1:35 PM 21.0 °F 9.3 °F 4.5 °F 49% 30.20 in 10.0 mi WNW 11.5 mph 17.3 mph N/A   Clear
1:55 PM 21.2 °F 8.9 °F 3.7 °F 47% 30.19 in 10.0 mi WNW 12.7 mph 17.3 mph N/A   Clear
2:15 PM 21.9 °F 11.7 °F 3.2 °F 45% 30.19 in 10.0 mi WNW 9.2 mph 17.3 mph N/A   Clear
2:35 PM 21.9 °F 9.8 °F 1.4 °F 41% 30.20 in 10.0 mi West 12.7 mph 18.4 mph N/A   Clear
2:55 PM 22.1 °F 12.0 °F 2.1 °F 42% 30.21 in 10.0 mi WNW 9.2 mph 17.3 mph N/A   Clear
3:15 PM 21.9 °F 10.4 °F 2.5 °F 43% 30.22 in 10.0 mi West 11.5 mph 19.6 mph N/A   Clear
3:35 PM 21.9 °F 11.7 °F 4.5 °F 47% 30.23 in 10.0 mi WNW 9.2 mph - N/A   Clear
3:55 PM 22.3 °F 11.5 °F 5.7 °F 49% 30.22 in 10.0 mi WNW 10.4 mph - N/A   Clear
4:15 PM 21.7 °F 10.2 °F 5.7 °F 50% 30.23 in 10.0 mi WNW 11.5 mph - N/A   Clear
4:35 PM 21.2 °F 11.7 °F 5.2 °F 50% 30.24 in 10.0 mi WNW 8.1 mph - N/A   Clear
4:55 PM 20.3 °F 10.6 °F 5.7 °F 53% 30.25 in 10.0 mi WNW 8.1 mph - N/A   Clear
5:15 PM 19.2 °F 11.3 °F 5.0 °F 54% 30.25 in 10.0 mi WNW 5.8 mph - N/A   Clear
5:35 PM 18.1 °F 10.0 °F 5.5 °F 58% 30.25 in 10.0 mi WNW 5.8 mph - N/A   Clear
5:55 PM 16.9 °F 8.5 °F 5.5 °F 61% 30.26 in 10.0 mi WNW 5.8 mph - N/A   Clear
6:15 PM 16.5 °F 9.4 °F 5.5 °F 62% 30.26 in 10.0 mi WNW 4.6 mph - N/A   Clear
6:35 PM 16.3 °F 10.8 °F 5.4 °F 62% 30.26 in 10.0 mi WNW 3.5 mph - N/A   Clear
6:55 PM 16.5 °F - 5.7 °F 63% 30.27 in 10.0 mi Calm Calm - N/A   Clear
7:15 PM 15.4 °F 9.8 °F 5.4 °F 64% 30.28 in 10.0 mi West 3.5 mph - N/A   Clear
7:35 PM 14.9 °F - 5.5 °F 66% 30.27 in 10.0 mi Calm Calm - N/A   Clear
7:55 PM 14.4 °F 8.6 °F 5.5 °F 68% 30.28 in 10.0 mi West 3.5 mph - N/A   Clear
8:15 PM 14.4 °F 8.6 °F 5.4 °F 67% 30.29 in 10.0 mi West 3.5 mph - N/A   Clear
8:35 PM 14.0 °F 6.5 °F 5.4 °F 69% 30.28 in 10.0 mi WNW 4.6 mph - N/A   Clear
8:55 PM 13.1 °F 4.0 °F 4.6 °F 69% 30.27 in 10.0 mi WNW 5.8 mph - N/A   Clear
9:15 PM 12.7 °F 5.0 °F 4.8 °F 71% 30.28 in 10.0 mi WNW 4.6 mph - N/A   Clear
9:35 PM 13.1 °F 7.1 °F 4.8 °F 70% 30.29 in 10.0 mi West 3.5 mph - N/A   Clear
9:55 PM 12.7 °F 5.0 °F 5.0 °F 71% 30.29 in 10.0 mi WNW 4.6 mph - N/A   Clear
10:15 PM 10.6 °F 4.3 °F 4.1 °F 75% 30.30 in 10.0 mi NW 3.5 mph - N/A   Clear
10:35 PM 12.0 °F 4.1 °F 4.8 °F 73% 30.31 in 10.0 mi West 4.6 mph - N/A   Clear
10:55 PM 11.5 °F 3.5 °F 4.8 °F 75% 30.32 in 10.0 mi West 4.6 mph - N/A   Clear
11:35 PM 11.7 °F 2.3 °F 4.6 °F 73% 30.33 in 10.0 mi WSW 5.8 mph - N/A   Clear
11:55 PM 11.3 °F 1.9 °F 4.1 °F 73% 30.33 in 10.0 mi West 5.8 mph - N/A   Clear